TimeEST,TemperatureF,Dew PointF,Humidity,Sea Level PressureIn,VisibilityMPH,Wind Direction,Wind SpeedMPH,Gust SpeedMPH,PrecipitationIn,Events,Conditions,WindDirDegrees,DateUTC
12:54 AM,23.0,16.0,74,30.11,10.0,Calm,Calm,-,N/A,,Clear,0,2013-03-05 05:54:00
2:54 AM,19.4,15.8,86,30.06,10.0,Calm,Calm,-,N/A,,Clear,0,2013-03-05 07:54:00
3:54 AM,19.0,15.1,85,30.08,9.0,ENE,6.9,-,N/A,,Clear,60,2013-03-05 08:54:00
4:54 AM,19.9,14.0,78,30.08,10.0,Calm,Calm,-,N/A,,Clear,0,2013-03-05 09:54:00
5:54 AM,21.9,15.1,75,30.08,10.0,Calm,Calm,-,N/A,,Clear,0,2013-03-05 10:54:00
6:54 AM,21.0,15.1,78,30.07,10.0,Calm,Calm,-,N/A,,Clear,0,2013-03-05 11:54:00
7:54 AM,21.2,17.6,86,30.02,10.0,ESE,4.6,-,N/A,,Clear,110,2013-03-05 12:54:00
8:54 AM,25.0,19.0,78,30.05,10.0,SE,4.6,-,N/A,,Clear,140,2013-03-05 13:54:00
9:54 AM,28.0,19.9,72,30.04,10.0,SE,4.6,-,N/A,,Clear,140,2013-03-05 14:54:00
10:54 AM,30.9,19.9,64,30.01,10.0,East,5.8,-,N/A,,Clear,90,2013-03-05 15:54:00
11:54 AM,34.0,19.9,56,29.99,10.0,Variable,5.8,-,N/A,,Clear,0,2013-03-05 16:54:00
12:54 PM,37.0,21.0,52,29.95,10.0,ESE,9.2,-,N/A,,Clear,110,2013-03-05 17:54:00
1:54 PM,39.9,19.9,45,29.89,10.0,ENE,10.4,16.1,N/A,,Clear,70,2013-03-05 18:54:00
2:54 PM,41.0,17.1,38,29.85,10.0,East,9.2,18.4,N/A,,Clear,90,2013-03-05 19:54:00
3:54 PM,43.0,18.0,37,29.83,10.0,East,8.1,-,N/A,,Clear,90,2013-03-05 20:54:00
4:54 PM,41.0,15.1,35,29.80,10.0,Variable,6.9,-,N/A,,Scattered Clouds,0,2013-03-05 21:54:00
5:54 PM,39.9,16.0,38,29.77,10.0,ENE,9.2,-,N/A,,Overcast,70,2013-03-05 22:54:00
6:54 PM,39.0,16.0,39,29.76,10.0,East,8.1,-,N/A,,Overcast,80,2013-03-05 23:54:00
7:54 PM,39.0,18.0,43,29.72,10.0,ENE,11.5,23.0,N/A,,Overcast,70,2013-03-06 00:54:00
8:54 PM,37.0,19.0,48,29.68,10.0,ENE,15.0,24.2,N/A,,Overcast,70,2013-03-06 01:54:00
9:54 PM,37.0,21.0,52,29.67,10.0,ENE,10.4,19.6,N/A,,Overcast,70,2013-03-06 02:54:00
10:54 PM,37.0,21.0,52,29.66,10.0,ENE,11.5,19.6,N/A,,Overcast,70,2013-03-06 03:54:00
11:54 PM,37.0,21.9,54,29.65,10.0,East,9.2,-,N/A,,Overcast,80,2013-03-06 04:54:00